[[{"header":{"parameterUnit":"m.s-1","parameterCategory":1,"la1":30.2991,"la2":30.254,"lo1":-89.0895,"lo2":-89.0444,"dy":0.0017,"dx":0.0017,"nx":28,"ny":28,"refTime":"2024-12-17T09:00:00:Z","depth":0,"parameterNumber":2,"parameterNumberName":"U-component_of_WINDS"},"data":[0,0,0,0,0,0,0,0,0,0,0,0,0,0,0,0,0,0,0,0,0,0,0,0,0,0,0,0,0,0,0,0,0,0,0,0,0,0,0,0,0,0,0,0,0,0,0,0,0,0,0,0,0,0,0,0,0,0,0.4513,0.4513,0,0.4582,0.4583,0.4584,0.4618,0.4618,0.4618,0.4618,0.4688,0.469,0.4692,0,0,0,0,0,0,0,0,0,0,0,0,0,0.4408,0.441,0.4512,0.4513,0.4514,0.4582,0.4583,0.4584,0.4618,0.4618,0.4618,0.4618,0.4687,0.4689,0.4692,0,0,0,0,0,0,0,0,0,0,0,0,0,0.4463,0.4411,0.4512,0.4539,0.4542,0.4582,0.4583,0.4584,0.4618,0.4618,0.4618,0.4618,0.4686,0.4689,0.4692,0.471,0,0,0.4701,0.4702,0,0,0,0,0,0,0,0,0.446,0.4467,0.4534,0.4537,0.4541,0.4591,0.4572,0.4626,0.4618,0.4589,0.4618,0.4618,0.4656,0.4661,0.4674,0.4713,0.4716,0.4701,0.4703,0.4704,0.4705,0,0,0,0,0,0,0,0.4456,0.4464,0.454,0.4535,0.4539,0.4548,0.4556,0.4582,0.4621,0.4591,0.4594,0.4602,0.4657,0.4671,0.4676,0.4717,0.4701,0.4703,0.4705,0.4706,0.4775,0.4775,0,0,0,0,0,0,0.4448,0.4461,0.4538,0.4542,0.45,0.455,0.4558,0.4575,0.4621,0.4628,0.4602,0.4603,0.4666,0.4673,0.4679,0.4703,0.4704,0.4706,0.4708,0.4775,0.4775,0.4775,0,0,0,0,0,0,0.4446,0.4455,0.4535,0.4502,0.4513,0.4551,0.457,0.4576,0.459,0.4629,0.4636,0.4609,0.4667,0.4675,0.4702,0.4706,0.4708,0.471,0.4774,0.4775,0.4775,0.4751,0,0,0,0,0,0,0.4443,0.4454,0.4461,0.4502,0.4515,0.4557,0.457,0.4578,0.4595,0.4598,0.4638,0.4644,0.4667,0.4698,0.4705,0.471,0.4712,0.4774,0.4774,0.4775,0.4751,0.475,0.4749,0,0,0,0,0,0.4439,0.4451,0.4461,0.447,0.4525,0.4557,0.4565,0.4591,0.4595,0.4603,0.4628,0.4643,0.4704,0.47,0.4708,0.4714,0.4774,0.4774,0.4775,0.4752,0.475,0.4749,0,0,0,0,0,0,0.4408,0.4457,0.4469,0.4494,0.4522,0.4563,0.4573,0.4589,0.4615,0.4616,0.4648,0.4656,0.4681,0.47,0.4695,0.4734,0.4741,0.4743,0.472,0.4719,0.4718,0.4713,0.4715,0,0,0,0,0,0.4405,0.4428,0.4469,0.4487,0.4501,0.4534,0.455,0.4568,0.4597,0.4609,0.4636,0.4664,0.4689,0.4705,0.4731,0.4755,0.4764,0.4763,0.4761,0.476,0.4762,0.4776,0.4776,0.4776,0.4776,0.4776,0,0,0.4397,0.4427,0.4439,0.4482,0.4505,0.4528,0.4544,0.4567,0.4585,0.4612,0.464,0.4661,0.4694,0.472,0.4732,0.4737,0.4764,0.4761,0.4759,0.4761,0.4776,0.4776,0.4776,0.4776,0.4776,0.4776,0,0,0.4396,0.442,0.4439,0.4462,0.4497,0.452,0.4524,0.4564,0.4579,0.4607,0.4629,0.465,0.4693,0.4716,0.4733,0.4741,0.4755,0.4748,0.4742,0.4755,0.4755,0.4756,0.4759,0.4759,0.4749,0.4749,0.4749,0,0.4382,0.4417,0.4446,0.4469,0.4487,0.4514,0.4533,0.4554,0.4596,0.4608,0.4612,0.4667,0.4691,0.4723,0.4725,0.4738,0.4744,0.4743,0.4753,0.4754,0.4754,0.4757,0.4758,0.4748,0.4748,0.4748,0.4748,0,0.4399,0.4423,0.4434,0.4474,0.4494,0.4514,0.4546,0.4563,0.458,0.4602,0.463,0.466,0.4693,0.4702,0.4718,0.4736,0.4738,0.4747,0.4754,0.4753,0.4756,0.4758,0.4746,0.4747,0.4747,0.4747,0,0,0.4379,0.4435,0.4439,0.4458,0.4499,0.4518,0.454,0.4573,0.4586,0.4614,0.4634,0.467,0.4679,0.4699,0.4718,0.473,0.4735,0.4738,0.474,0.4737,0.4757,0.4749,0.475,0.4745,0.4745,0.4746,0.4754,0,0.4383,0.4424,0.4451,0.4481,0.4504,0.4531,0.455,0.4577,0.4599,0.4621,0.4645,0.4671,0.4681,0.4693,0.4706,0.4731,0.4739,0.4731,0.4763,0.4764,0.4754,0.4752,0.4744,0.4751,0.4756,0.4756,0.4756,0,0.4393,0.4421,0.4453,0.4493,0.4504,0.452,0.4553,0.4574,0.4606,0.4621,0.4643,0.4663,0.4687,0.4692,0.4727,0.4721,0.4736,0.475,0.4751,0.4755,0.476,0.4756,0.4753,0.4754,0.4759,0.4758,0.4758,0,0.4375,0.4421,0.4447,0.4462,0.4509,0.452,0.454,0.4572,0.459,0.4618,0.463,0.466,0.4676,0.4699,0.4727,0.4728,0.4759,0.4766,0.4772,0.4771,0.4776,0.4776,0.4776,0.4786,0.4786,0.4786,0.4786,0,0.4377,0.4396,0.444,0.4455,0.4478,0.4509,0.453,0.4552,0.458,0.4601,0.4625,0.4644,0.4679,0.4702,0.4724,0.4749,0.4756,0.4769,0.4775,0.4767,0.4765,0.4777,0.4777,0.4786,0.4786,0.4786,0.4786,0,0.436,0.4391,0.442,0.4463,0.4474,0.4488,0.4524,0.4541,0.4564,0.4589,0.4597,0.4634,0.4662,0.4692,0.473,0.4745,0.477,0.4777,0.4759,0.4762,0.4766,0.4765,0.4774,0.4777,0.4784,0.4784,0.4784,0,0.4359,0.4375,0.4419,0.4435,0.4454,0.4479,0.4498,0.4529,0.4547,0.4585,0.4597,0.4628,0.4654,0.4698,0.4728,0.4758,0.4766,0.4767,0.4771,0.4763,0.4766,0.4765,0.4767,0.4766,0.4766,0.4765,0.4765,0,0.4354,0.4369,0.4395,0.4426,0.4448,0.4474,0.4501,0.4513,0.4549,0.4569,0.4599,0.4619,0.4659,0.4689,0.4723,0.4743,0.476,0.4764,0.4767,0.4759,0.4748,0.4754,0.4756,0.4763,0.4764,0.4764,0.4764,0.4764,0.4346,0.4361,0.4394,0.4423,0.4447,0.4472,0.4489,0.4515,0.4541,0.4576,0.4593,0.4623,0.4655,0.4702,0.4722,0.4746,0.4751,0.4755,0.4756,0.4757,0.4755,0.4744,0.4752,0.4752,0.4752,0.4752,0.4753,0,0.4342,0.4365,0.4391,0.4428,0.4451,0.4466,0.4497,0.4515,0.4541,0.4569,0.4595,0.463,0.4659,0.4692,0.4723,0.4736,0.4745,0.4743,0.4743,0.4747,0.4748,0.4743,0.4736,0.4736,0.4736,0.4736,0.4736,0.4736,0.4342,0.4369,0.4387,0.4426,0.4449,0.4479,0.4496,0.4519,0.4542,0.458,0.4605,0.4626,0.4656,0.4691,0.4719,0.4727,0.4738,0.4734,0.4745,0.4746,0.4747,0.4748,0.4743,0.4736,0.4736,0.4742,0.4742,0.4742]},{"header":{"parameterUnit":"m.s-1","parameterCategory":1,"la1":30.2991,"la2":30.254,"lo1":-89.0895,"lo2":-89.0444,"dy":0.0017,"dx":0.0017,"nx":28,"ny":28,"refTime":"2024-12-17T09:00:00:Z","depth":0,"parameterNumber":3,"parameterNumberName":"V-component_of_WINDS"},"data":[0,0,0,0,0,0,0,0,0,0,0,0,0,0,0,0,0,0,0,0,0,0,0,0,0,0,0,0,0,0,0,0,0,0,0,0,0,0,0,0,0,0,0,0,0,0,0,0,0,0,0,0,0,0,0,0,0,0,-1.394,-1.394,0,-1.3967,-1.3967,-1.3967,-1.3956,-1.3955,-1.3955,-1.3954,-1.398,-1.3981,-1.3982,0,0,0,0,0,0,0,0,0,0,0,0,0,-1.3877,-1.3878,-1.394,-1.394,-1.394,-1.3967,-1.3967,-1.3967,-1.3956,-1.3955,-1.3954,-1.3954,-1.3979,-1.3981,-1.3983,0,0,0,0,0,0,0,0,0,0,0,0,0,-1.3904,-1.3879,-1.394,-1.3938,-1.3938,-1.3966,-1.3967,-1.3967,-1.3956,-1.3955,-1.3954,-1.3953,-1.3979,-1.3981,-1.3983,-1.4014,0,0,-1.3989,-1.3989,0,0,0,0,0,0,0,0,-1.3903,-1.3907,-1.3938,-1.3938,-1.3938,-1.3957,-1.3954,-1.3983,-1.3956,-1.3949,-1.3954,-1.3953,-1.3973,-1.3975,-1.3982,-1.4015,-1.4016,-1.3989,-1.399,-1.3991,-1.3991,0,0,0,0,0,0,0,-1.3901,-1.3905,-1.395,-1.3938,-1.3939,-1.3935,-1.3938,-1.396,-1.3966,-1.395,-1.3949,-1.3952,-1.3973,-1.3981,-1.3983,-1.4017,-1.3989,-1.399,-1.3992,-1.3992,-1.4076,-1.4078,0,0,0,0,0,0,-1.3899,-1.3904,-1.3949,-1.3951,-1.3918,-1.3937,-1.394,-1.3952,-1.3966,-1.3967,-1.3953,-1.3952,-1.3978,-1.3981,-1.3984,-1.4021,-1.3991,-1.3993,-1.3994,-1.4075,-1.4077,-1.4078,0,0,0,0,0,0,-1.3898,-1.3903,-1.3948,-1.3927,-1.3933,-1.3939,-1.3952,-1.3953,-1.3961,-1.3968,-1.3969,-1.396,-1.3977,-1.3981,-1.4007,-1.4022,-1.3993,-1.3995,-1.4074,-1.4076,-1.4077,-1.4097,0,0,0,0,0,0,-1.3896,-1.3903,-1.3915,-1.3928,-1.3934,-1.3971,-1.3953,-1.3954,-1.3964,-1.3963,-1.3975,-1.3976,-1.3977,-1.4004,-1.4009,-1.4024,-1.3997,-1.4073,-1.4075,-1.4077,-1.4095,-1.4099,-1.4102,0,0,0,0,0,-1.3894,-1.3919,-1.3916,-1.3921,-1.3949,-1.3972,-1.3976,-1.3976,-1.3965,-1.3978,-1.3983,-1.3976,-1.402,-1.4007,-1.4012,-1.4028,-1.4072,-1.4074,-1.4077,-1.4093,-1.4098,-1.4102,0,0,0,0,0,0,-1.3907,-1.3921,-1.3917,-1.3947,-1.3959,-1.397,-1.3985,-1.3981,-1.3996,-1.3993,-1.3993,-1.3996,-1.4022,-1.4028,-1.4013,-1.4059,-1.4044,-1.4048,-1.4055,-1.406,-1.4063,-1.4062,-1.3998,0,0,0,0,0,-1.3914,-1.3932,-1.3942,-1.3968,-1.3974,-1.3979,-1.3989,-1.3988,-1.4,-1.4004,-1.4011,-1.4022,-1.4039,-1.4049,-1.4065,-1.4096,-1.4098,-1.411,-1.4113,-1.4116,-1.412,-1.4136,-1.4142,-1.4086,-1.4086,-1.4086,0,0,-1.3927,-1.3937,-1.3948,-1.3971,-1.398,-1.3998,-1.3983,-1.4003,-1.4016,-1.4007,-1.4032,-1.4038,-1.405,-1.4078,-1.4091,-1.4084,-1.4136,-1.412,-1.4122,-1.4123,-1.414,-1.4145,-1.415,-1.4087,-1.4087,-1.4087,0,0,-1.3962,-1.3971,-1.3993,-1.4002,-1.4016,-1.402,-1.4025,-1.4037,-1.4041,-1.4066,-1.406,-1.4076,-1.4104,-1.4113,-1.4121,-1.416,-1.4154,-1.4164,-1.4184,-1.4201,-1.4205,-1.4209,-1.4223,-1.4228,-1.4168,-1.4168,-1.4168,0,-1.3976,-1.4004,-1.4005,-1.4026,-1.4036,-1.4029,-1.4052,-1.4061,-1.4079,-1.4086,-1.4077,-1.4113,-1.4121,-1.4151,-1.4161,-1.4168,-1.4174,-1.4163,-1.4205,-1.4209,-1.4212,-1.4225,-1.4231,-1.4169,-1.4169,-1.4169,-1.4168,0,-1.4022,-1.4041,-1.4058,-1.4076,-1.4088,-1.411,-1.4113,-1.4125,-1.4124,-1.4128,-1.4153,-1.4163,-1.418,-1.4187,-1.4186,-1.4218,-1.4213,-1.4205,-1.4189,-1.4219,-1.4231,-1.4236,-1.4171,-1.417,-1.417,-1.4169,0,0,-1.4065,-1.4084,-1.409,-1.4099,-1.4114,-1.4129,-1.415,-1.4167,-1.4178,-1.419,-1.4208,-1.4232,-1.4225,-1.4234,-1.4234,-1.4248,-1.4278,-1.4238,-1.4239,-1.4246,-1.4315,-1.4321,-1.4327,-1.4275,-1.4276,-1.4276,-1.4314,0,-1.41,-1.4138,-1.414,-1.4174,-1.4192,-1.4186,-1.4205,-1.4216,-1.422,-1.4236,-1.424,-1.4258,-1.4247,-1.4252,-1.4267,-1.4272,-1.4292,-1.4269,-1.4291,-1.4292,-1.4288,-1.4333,-1.434,-1.4375,-1.4319,-1.4319,-1.432,0,-1.4147,-1.4162,-1.4198,-1.4211,-1.4219,-1.4236,-1.4252,-1.4267,-1.428,-1.4282,-1.4293,-1.429,-1.4312,-1.4296,-1.4325,-1.4309,-1.4318,-1.4322,-1.4324,-1.4326,-1.4308,-1.4337,-1.4386,-1.4391,-1.4328,-1.4327,-1.4327,0,-1.4175,-1.4204,-1.423,-1.4237,-1.4253,-1.4265,-1.4272,-1.4284,-1.4294,-1.4309,-1.4316,-1.4332,-1.4341,-1.4354,-1.4355,-1.4344,-1.4385,-1.4369,-1.4387,-1.4387,-1.4396,-1.4396,-1.4448,-1.4402,-1.4402,-1.4402,-1.4401,0,-1.4214,-1.4236,-1.4243,-1.4258,-1.4284,-1.4285,-1.431,-1.4316,-1.4326,-1.4343,-1.4339,-1.4354,-1.4356,-1.4372,-1.4373,-1.4397,-1.4401,-1.4404,-1.4404,-1.4404,-1.4404,-1.441,-1.4408,-1.4403,-1.4403,-1.4402,-1.4402,0,-1.4249,-1.4254,-1.4282,-1.4295,-1.4299,-1.4317,-1.4328,-1.4343,-1.4347,-1.4369,-1.4374,-1.438,-1.4399,-1.4402,-1.4423,-1.4425,-1.4454,-1.4451,-1.445,-1.4449,-1.4468,-1.4466,-1.4526,-1.4534,-1.4482,-1.4483,-1.4483,0,-1.4274,-1.4292,-1.4307,-1.4318,-1.4326,-1.4344,-1.4356,-1.4358,-1.4369,-1.4385,-1.4398,-1.4417,-1.4432,-1.4462,-1.4468,-1.4485,-1.4483,-1.4502,-1.4485,-1.4485,-1.4483,-1.4482,-1.4484,-1.4506,-1.4506,-1.4507,-1.4507,0,-1.4318,-1.432,-1.4337,-1.4354,-1.4368,-1.4382,-1.4395,-1.4405,-1.4408,-1.4422,-1.4441,-1.4453,-1.4476,-1.4494,-1.4511,-1.4517,-1.4513,-1.4513,-1.4518,-1.4518,-1.4517,-1.4518,-1.4459,-1.4511,-1.4511,-1.4511,-1.451,-1.451,-1.4349,-1.4365,-1.4378,-1.4397,-1.4407,-1.442,-1.4435,-1.4441,-1.4458,-1.4477,-1.4477,-1.4499,-1.4511,-1.4533,-1.4541,-1.4557,-1.4551,-1.4558,-1.456,-1.4562,-1.4564,-1.4514,-1.456,-1.456,-1.456,-1.456,-1.456,0,-1.4393,-1.4401,-1.4419,-1.4438,-1.4453,-1.4448,-1.4463,-1.4475,-1.4495,-1.4507,-1.4522,-1.4544,-1.4562,-1.457,-1.4588,-1.46,-1.4598,-1.4604,-1.4603,-1.4605,-1.4569,-1.4563,-1.4605,-1.4605,-1.4605,-1.4605,-1.4605,-1.4605,-1.4417,-1.4443,-1.4447,-1.4478,-1.4486,-1.4508,-1.4517,-1.4528,-1.4538,-1.4564,-1.4579,-1.4584,-1.4595,-1.4613,-1.463,-1.4631,-1.4638,-1.4645,-1.4646,-1.4612,-1.4607,-1.4603,-1.4597,-1.4647,-1.4647,-1.4681,-1.4682,-1.4682]}]]